DW4240 Wolfenbuettel DE current weather conditions

sailwx.info

Wind from 328

Air temperature 11.7° C
Dewpoint 9.6° C

Last reported at 2019-Aug-21 03:00 UTC.
Time now 2019-Aug-21 03:28 UTC

Location: N 52°09' E 010°35'.
View on Google Maps.

See reports from other nearby stations

  
Tides and Currents Weather Stations Pressure Air Temp Water Temp Dewpoint Dewpoint Depression Visibility Wind Speed Wind Dir Waves Ship Positions
date/time (UTC)wind fromknots sea level pressurealtimeterstation pressurevisibilityair tempwater tempwave heightnotes
2019-Aug-21 03:00 328 11.7
2019-Aug-21 02:46 328 11.7
2019-Aug-21 02:30 328 12.2
2019-Aug-21 02:15 328 12.2
2019-Aug-21 02:00 328 12.8
2019-Aug-21 01:45 328 12.8
2019-Aug-21 01:30 328 13.3
2019-Aug-21 01:16 328 13.9
2019-Aug-21 01:01 328 13.9
2019-Aug-21 00:48 328 14.4
2019-Aug-21 00:31 328 15.0
2019-Aug-21 00:16 328 15.6
2019-Aug-21 00:02 328 15.6
2019-Aug-20 23:45 329 16.1
2019-Aug-20 23:31 329 16.1
2019-Aug-20 23:17 319 1 16.1
2019-Aug-20 23:01 284 1 16.1
2019-Aug-20 22:46 290 3 16.1
2019-Aug-20 22:31 292 1 16.1
2019-Aug-20 22:16 291 1 16.1
2019-Aug-20 22:01 283 1 15.6
2019-Aug-20 21:46 280 1 14.4
2019-Aug-20 21:30 221 14.4
2019-Aug-20 21:16 221 14.4
2019-Aug-20 21:00 221 15.0
2019-Aug-20 20:45 221 15.0
2019-Aug-20 20:30 221 15.6
2019-Aug-20 20:16 221 15.6
2019-Aug-20 20:00 221 16.1
2019-Aug-20 19:46 221 16.1
2019-Aug-20 19:30 221 16.7
2019-Aug-20 19:15 221 17.2
2019-Aug-20 19:00 221 17.8
2019-Aug-20 18:45 221 18.3
2019-Aug-20 18:30 221 18.9
2019-Aug-20 18:15 221 19.4
2019-Aug-20 18:00 221 20.0
2019-Aug-20 17:45 221 20.0
2019-Aug-20 17:30 221 20.6
2019-Aug-20 17:15 221 0 20.6
2019-Aug-20 17:00 221 2 20.6
2019-Aug-20 16:45 221 1 21.1
2019-Aug-20 16:30 232 1 21.1
2019-Aug-20 16:15 232 2 21.1
2019-Aug-20 16:01 232 2 21.1
2019-Aug-20 15:47 244 1 21.1
2019-Aug-20 15:31 238 1 21.7
2019-Aug-20 15:16 266 0 21.7
2019-Aug-20 15:02 267 1 21.7
2019-Aug-20 14:46 271 3 21.7
2019-Aug-20 14:31 294 21.7
2019-Aug-20 14:16 273 1 22.2
2019-Aug-20 14:01 248 1 22.2
2019-Aug-20 13:46 269 3 22.2
2019-Aug-20 13:31 234 1 22.2
2019-Aug-20 13:16 265 2 22.2
2019-Aug-20 13:01 273 2 22.2
2019-Aug-20 12:46 244 2 22.2
2019-Aug-20 12:31 265 2 22.2
2019-Aug-20 12:16 286 3 22.2
2019-Aug-20 12:01 261 2 22.2
2019-Aug-20 11:46 228 4 22.2
2019-Aug-20 11:31 219 2 22.8
2019-Aug-20 11:16 270 1 22.2
2019-Aug-20 11:01 219 3 21.7
2019-Aug-20 10:46 290 2 22.2
2019-Aug-20 10:32 265 3 22.2
2019-Aug-20 10:16 294 1 22.2
2019-Aug-20 10:01 286 1 22.2
2019-Aug-20 09:46 283 2 21.7
2019-Aug-20 09:31 264 2 21.7
2019-Aug-20 09:15 277 3 21.7
2019-Aug-20 09:00 263 4 21.1
2019-Aug-20 08:45 262 3 20.6
2019-Aug-20 08:30 265 0 20.0
2019-Aug-20 08:15 265 2 19.4
2019-Aug-20 08:00 238 1 18.9
2019-Aug-20 07:45 262 2 18.9
2019-Aug-20 07:31 260 2 17.8
2019-Aug-20 07:17 270 1 17.2
2019-Aug-20 07:01 218 16.1
2019-Aug-20 06:47 218 15.0
2019-Aug-20 06:31 218 13.9
2019-Aug-20 06:16 218 13.3
2019-Aug-20 06:01 218 12.2
2019-Aug-20 05:45 218 11.1
2019-Aug-20 05:30 218 10.6
2019-Aug-20 05:15 218 10.0
2019-Aug-20 05:00 218 10.0
2019-Aug-20 04:45 218 10.0
2019-Aug-20 04:30 218 10.0
2019-Aug-20 04:15 218 10.0
2019-Aug-20 04:00 218 10.0
2019-Aug-20 03:45 218 10.0
2019-Aug-20 03:30 218 10.0
2019-Aug-20 03:15 218 10.6
2019-Aug-20 03:00 218 10.6
2019-Aug-20 02:45 218 10.6
2019-Aug-20 02:30 218 10.6
2019-Aug-20 02:15 218 11.1
2019-Aug-20 02:02 218 11.1
2019-Aug-20 01:46 218 11.1
2019-Aug-20 01:31 218 11.1
2019-Aug-20 01:17 218 11.7
2019-Aug-20 01:02 218 11.7
2019-Aug-20 00:46 218 11.7
2019-Aug-20 00:31 218 12.2
2019-Aug-20 00:16 218 12.2
2019-Aug-20 00:01 218 12.2
2019-Aug-19 23:46 218 12.8
2019-Aug-19 23:31 218 12.8
2019-Aug-19 23:17 218 12.8
2019-Aug-19 23:01 218 12.8
2019-Aug-19 22:46 218 13.3
2019-Aug-19 22:30 218 13.3
2019-Aug-19 22:16 218 13.3
2019-Aug-19 22:01 218 13.9
2019-Aug-19 21:46 218 13.9
2019-Aug-19 21:30 218 13.9
2019-Aug-19 21:15 218 13.9
2019-Aug-19 21:01 218 14.4
2019-Aug-19 20:45 218 14.4
2019-Aug-19 20:30 218 15.0
2019-Aug-19 20:15 218 15.6
2019-Aug-19 20:00 218 15.6
2019-Aug-19 19:45 218 16.1
2019-Aug-19 19:30 218 17.2
2019-Aug-19 19:15 218 17.8
2019-Aug-19 19:00 218 18.9
2019-Aug-19 18:45 218 19.4
2019-Aug-19 18:31 218 20.0
2019-Aug-19 18:18 218 2 20.6
2019-Aug-19 18:03 218 2 21.1
2019-Aug-19 17:46 218 1 21.7
2019-Aug-19 17:31 217 2 21.7
2019-Aug-19 17:16 202 4 21.7
2019-Aug-19 17:01 236 3 21.7
2019-Aug-19 16:45 246 3 21.7
2019-Aug-19 16:33 216 3 21.7
2019-Aug-19 16:16 257 4 22.2
2019-Aug-19 16:02 253 4 22.8
2019-Aug-19 15:46 234 4 23.3
2019-Aug-19 15:30 248 5 23.3
2019-Aug-19 15:16 275 3 23.9
2019-Aug-19 15:01 267 4 23.9
2019-Aug-19 14:46 275 3 24.4
2019-Aug-19 14:31 277 4 23.3
2019-Aug-19 14:16 254 5 23.9
2019-Aug-19 14:00 261 5 23.9
2019-Aug-19 13:46 265 5 22.8
2019-Aug-19 13:30 278 4 23.3
2019-Aug-19 13:16 244 5 23.3
2019-Aug-19 13:01 268 6 23.3
2019-Aug-19 12:45 270 6 23.3
2019-Aug-19 12:31 251 4 23.9
2019-Aug-19 12:15 273 5 22.8
2019-Aug-19 12:00 279 4 22.8
2019-Aug-19 11:45 277 3 22.2
2019-Aug-19 11:30 266 5 22.2
2019-Aug-19 11:15 275 6 21.7
2019-Aug-19 11:00 228 6 21.7
2019-Aug-19 10:45 248 6 21.1
2019-Aug-19 10:30 264 6 21.1
2019-Aug-19 10:15 269 5 21.1
2019-Aug-19 10:00 242 6 21.1
2019-Aug-19 09:48 254 6 21.1
2019-Aug-19 09:31 259 6 21.1
2019-Aug-19 09:16 303 6 20.0
2019-Aug-19 09:02 258 6 19.4
2019-Aug-19 08:46 201 6 19.4
2019-Aug-19 08:32 254 6 18.9
2019-Aug-19 08:16 263 6 19.4
2019-Aug-19 08:01 273 6 18.9
2019-Aug-19 07:45 247 7 18.3
2019-Aug-19 07:30 217 8 18.3
2019-Aug-19 07:16 262 6 17.8
2019-Aug-19 07:00 259 5 17.8
2019-Aug-19 06:45 229 2 17.2
2019-Aug-19 06:30 205 4 16.7
2019-Aug-19 06:15 218 2 17.2
2019-Aug-19 06:00 212 2 16.7
2019-Aug-19 05:48 216 3 16.1
2019-Aug-19 05:31 216 3 15.6
2019-Aug-19 05:16 215 4 15.6
2019-Aug-19 05:01 217 4 15.6
2019-Aug-19 04:47 280 2 15.6
2019-Aug-19 04:31 291 1 15.6
2019-Aug-19 04:16 291 15.6
2019-Aug-19 04:01 291 0 15.6
2019-Aug-19 03:46 291 1 15.6
2019-Aug-19 03:31 292 1 15.6
2019-Aug-19 03:16 293 2 15.6
2019-Aug-19 03:00 298 0 15.6